Skip Page Navigation
NASA JPL Caltech
NASA Logo - Jet Propulsion Laboratory + View the NASA Portal
+ Center for Near-Earth Object Studies
JPL Home Earth Solar System Stars & Galaxies Technology
JPL Solar System Dynamics
BODIES ORBITS EPHEMERIDES TOOLS PHYSICAL DATA DISCOVERY FAQ SITE MAP
IMPORTANT: The SSD Announcement email list is now available. Major changes are coming in the near future, including possible hostname and/or URL changes. To be notified of such changes, subscribe to this email list.

Please visit this page for more details.


JPL Small-Body Database Browser
Search: [ help ]  
97655 (2000 FZ17)
Classification: Main-belt Asteroid          SPK-ID: 2097655
Ephemeris | Orbit Diagram | Orbital Elements | Mission Design | Physical Parameters | Discovery Circumstances | Close-Approach Data ]

[ show orbit diagram ]
Orbital Elements at Epoch 2459000.5 (2020-May-31.0) TDB
Reference: JPL 18 (heliocentric ecliptic J2000)
 Element Value Uncertainty (1-sigma)   Units 
e .1416980158820569 6.3971e-08  
a 3.148681539371254 2.7452e-08 au
q 2.702519612597886 1.9836e-07 au
i 12.32843588337763 6.6172e-06 deg
node 59.88556151420788 2.5432e-05 deg
peri 132.2614219524185 3.0535e-05 deg
M 213.2125265921763 1.9608e-05 deg
tp 2459832.604801768010
(2022-Sep-10.10480177)
0.00011715 TDB
period 2040.758122487837
5.59
2.6689e-05
7.307e-08
d
yr
n .1764050310681273 2.307e-09 deg/d
Q 3.594843466144621 3.1342e-08 au
  Orbit Determination Parameters
   # obs. used (total)      479  
   data-arc span      9837 days (26.93 yr)  
   first obs. used      1992-11-24  
   last obs. used      2019-10-31  
   planetary ephem.      DE431  
   SB-pert. ephem.      SB431-N16  
   condition code      0  
   norm. resid. RMS      .61559  
   source      ORB  
   producer      Otto Matic  
   solution date      2019-Nov-07 11:33:35  

Additional Information
 Earth MOID = 1.71826 au 
 Jupiter MOID = 1.44295 au 
 T_jup = 3.157 
[ show covariance matrix ]

Ephemeris | Orbit Diagram | Orbital Elements | Mission Design | Physical Parameters | Discovery Circumstances | Close-Approach Data ]

Physical Parameter Table
Parameter Symbol Value Units Sigma Reference Notes
absolute magnitude H 14.6   n/a MPO449596  
diameter diameter 4.873 km 0.969 urn:nasa:pds:neowise_diameters_albedos::2.0[mainbelt] (http://adsabs.harvard.edu/abs/2011ApJ...741...68M)  
geometric albedo albedo 0.129   0.044 urn:nasa:pds:neowise_diameters_albedos::2.0[mainbelt] (http://adsabs.harvard.edu/abs/2011ApJ...741...68M)  

97655 (2000 FZ17)          Discovered 2000-Mar-29 by LINEAR at Socorro
Reference: 20050224/Numbers.arcLast Updated: 2005-02-28

[ show close-approach data ]
Ephemeris | Orbit Diagram | Orbital Elements | Mission Design | Physical Parameters | Discovery Circumstances | Close-Approach Data ]
ABOUT SSD CREDITS/AWARDS PRIVACY/COPYRIGHT GLOSSARY LINKS
FirstGov 2020-May-26 21:20 UT
(server date/time)  
NASA Home Page
Site Manager:   Ryan S. Park
Webmaster  Alan B. Chamberlin